Погода в Любашевке

Хотите узнать прогноз погоды в Любашевке? Тогда Вам сюда: Погода в Любашевке

Поиск расширенной информации на нашем сайте:

Полезная информация:

Новости сайта



02.01.2020
Опубликован Долгосрочный прогноз погоды по городам России и ближнего зарубежья на январь 2020 года.
Карты: Прогноз на январь и февраль 2020 года, Сравнение прогнозируемой аномалии приземной температуры воздуха на январь 2020 года по разным моделям.




Погода в Любашевке - сегодня

Время (UTC), дата Ветер
(°,м/с) 
Видим.   Явления Облачность Т
(°С)
Тd
(°С)
f(%) Тe
(°С)
Pmin
(гПа)
dP
(гПа)
Po
(мм)
O2
(г/м3)
Тmin Tmax R s Состояние
почвы
06 01.06.20 340 (С) 13000 м    10/10 600 м кучево-дожд. 
[Cb calv]
+11.3 +9.2 87 +12  1006.1  -0.2  738  284  +10.3         
09 01.06.20 350 (С) 4000 м  слаб. ливневой дождь  10/10 600 м кучево-дожд. 
[Cb cap]
+11 +10 94 +11    0.4             
12 01.06.20 360 (С) 6000 м  слаб. ливневой дождь  10/10 600 м кучево-дожд. 
[Cb cap]
+12.3 +10.9 91 +14  1006.9  0.5  739  283         
15 01.06.20 360 (С) 20000 м  {ливн. осадки}  4/3 1000 м средняя 
[Cu med, cong|Ac trans]
+13.2 +7.9 70 +12  1008.3  1.4  740  283           
18 01.06.20 340 (С) 20000 м  {ливн. осадки}  3/3 600 м 
[Sc diur, vesp]
+10.9 +6.6 75 +11  1009.1  0.6  740  286    +13.8     
21 01.06.20 тихо ()   10 км    9/0 средняя 
[Ac trans]
+9 +7 87 +9  1009.7  0.5  741  288           
00 02.06.20 тихо ()   10 км    10/0 средняя 
[Ac und]
+8.9 +6.7 86 +9  1008.9  -0.8  740  288           
03 02.06.20 280 (З) 8000 м  дымка  1/0 средняя 
[Ac und]
+6.1 +5 93 +7  1008.8  -0.3  740  291           
06 02.06.20 270 (З) 20000 м    1/1 1000 м 
[Cu hum]
+10.5 +5.9 73 +10  1008.6  0.1  740  286  +6  -2.1      затоплена
водой 
09 02.06.20 260 (З) 20000 м    6/6 1000 м 
[Cu med, cong]
+14.2 +4.5 52 +14  1007.9  -0.4  740  283           
12 02.06.20 250 (З) 20000 м    8/5 600 м кучево-дожд., средняя 
[Cb calv|Ac trans]
+16.4 +4.5 45 +17  1007.1  -0.6  739  280           
15 02.06.20 260 (З) 20000 м    9/4 600 м средняя, верхняя 
[Sc diur, vesp|Ac trans|Ci fib]
+15.5 +6 53 +16  1007  -0.2  739  281           
18 02.06.20 230 (ЮЗ) 20000 м    4/3 600 м верхняя 
[Sc|Ci fib]
+12.2 +5.9 65 +13  1007.5  0.3  739  284    +17.4       
21 02.06.20 тихо ()   20000 м    ясно 
+8.8 +5.9 82 +9  1007.8  739  288           
00 03.06.20 тихо ()   10 км    ясно верхняя 
[Cu med, cong|Ci sp]
+6.7 +4.8 88 +7  1007.4  -0.6             
03 03.06.20 320 (СЗ) 10 км    1/0 верхняя 
[Ci fib]
+5.6 +3.9 89 +6  1006.8  -0.6  739  291        697   
06 03.06.20 150 (ЮВ) 20000 м    9/0 верхняя 
[Cs]
+14.2 +8.1 67 +14  1006.2  739  281  +5  +2.8      сухая 
09 03.06.20 180 (Ю) 20000 м    9/8 600 м кучево-дожд., верхняя 
[Cb cap|Ci fib]
+16.6 +6.2 50 +16  1005.9  -0.1  738  279           
12 03.06.20 240 (ЮЗ) 20000 м    9/8 600 м средняя 
[Sc diur, vesp|Ac cuf]
+17 +5.6 47 +17  1005.3  -0.5  738  279           
15 03.06.20 280 (З) 20000 м    9/6 600 м кучево-дожд., средняя, верхняя 
[Cb cap|Ac cuf|Cs]
+17.6 +5.9 46 +18  1005.1  -0.2  738  278           
18 03.06.20 тихо ()   20000 м    4/1 600 м средняя 
[Sc|Ac trans]
+14.6 +6.7 59 +15  1006  0.7  738  281           
21 03.06.20 220 (ЮЗ) 20000 м    10/9 600 м кучево-дожд., средняя 
[Cb calv|Ac trans]
+12.5 +7.8 73 +14  1006.7  0.5  739  283           
00 04.06.20 тихо ()   10 км    9/8 600 м кучево-дожд., средняя 
[Cb calv|Ac trans]
+10.5 +8.7 89 +11  1006.3  -0.5  738  285           
03 04.06.20 170 (Ю) 5000 м  дымка{ливн. осадки}  3/1 600 м средняя 
[Sc|Ac trans]
+9.6 +8.9 95 +10  1006.3  -0.1  738  286           
06 04.06.20 190 (Ю) 20000 м  {ливн. осадки}  1/0 средняя 
[Ac trans]
+14.5 +10.1 75 +17  1006  0.1  738  281  +9.6    0.7     
Время (UTC), дата Ветер
(°,м/с) 
Видим.   Явления Облачность Т
(°С)
Тd
(°С)
f(%) Тe
(°С)
Pmin
(гПа)
dP
(гПа)
Po
(мм)
O2
(г/м3)
Тmin Tmax R s Состояние
почвы

Для получения пояснительной информации подведите курсор к названию столбца.

ПОГОДА в Любашевке - архив

Всё, что Вы хотите узнать о погоде в Любашевке - удобно и подробно!

Выберите нужную дату (начиная с 1 января 2019* года) и нажмите кнопку "Найти".
Будут отображены архивные сводки погоды по пункту Любашевка, начиная с указанной даты.


Отображать данные в формате CSV (для использования в таблицах Excel)


Внимание! Наш архив погоды предназначен исключительно для личного некоммерческого использования в познавательных целях. Если Вам необходимы официальные справки о состоянии погоды (для производственных, юридических, коммерческих и т.п. целей), обращайтесь в органы Росгидромета.

*Примечание: данная дата относится к архиву по метеостанциям СССР (Россия, СНГ, Балтия).
Архив по метеостанциям Зарубежной Европы и Азии (кроме Китая) хранится 10 дней, по другим регионам земного шара (Китай, Африка, Америка, Австралия, Океания) - 1 день.

Любашевка - район местоположения метеостанции


Название, широта, долгота, высота метеостанции:
Любашевка 47.9°ш. 30.3°д. 183 м над ур. моря [Украина]

Дополнительная информация

В oтличие oт бoльшинства пoгoдных сайтoв мы публикуем пoдрoбную метеoинфoрмацию в детальнoм прoфессиoнальнoм фoрмате.

Характеристики температуры и влажнoсти вoздуха измеряются на высoте 2 м в тени вдали oт зданий и деревьев.
Скoрoсть ветра измеряется на высoте 10 м (на урoвне рoста челoвека скoрoсть ветра ниже в 1.5-2 раза). Если метеoстанция нахoдится в гoрoде или в лесу, тo скoрoсть ветра занижена на 2-4 м/с пo сравнению с oткрытым местoм. Скoрoсть ветра над акватoриями крупных рек и oзёр, а также на вершинах хoлмoв на 2-5 м/с выше, чем в oбычных услoвиях.
Атмoсфернoе давление в разных тoчках местнoсти мoжет значительнo oтличаться oт давления на метеoстанции, в зависимoсти oт услoвий рельефа (при пoдъёме на 10 м давление пoнижается примернo на 1 мм рт.ст.).